Weather Roundup
Issued by NWS

Home | Current Version | Previous Version | Text Only | Print | Product List | Glossary On
Versions: 1 2 3 4 5 6 7 8 9 10 11 12 13 14 15 16 17 18 19 20 21 22 23 24 25 26 27 28 29 30 31 32 33 34 35 36 37 38 39 40 41 42 43 44 45 46 47 48 49 50
029
NZUS93 KARX 150710
HRRWXR

CURRENT HOURLY OBSERVATIONS ACROSS
MUCH OF THE UPPER MISSISSIPPI VALLEY
NATIONAL WEATHER SERVICE LA CROSSE WI
200 AM CDT WED AUG 15 2018


...SOUTHEAST MINNESOTA...


CITY           SKY/WX    TMP DP  RH WIND       PRES   REMARKS
ROCHESTER      FAIR      67  66  97 S5        29.93S FOG
ROCHESTER/MAYO FAIR      71  70  94 CALM      29.93S
WINONA         FAIR      72  70  94 CALM      29.91S
AUSTIN         FOG       68  66  94 CALM      29.92F VSB 3/4
ALBERT LEA     FAIR      72  72 100 CALM      29.93S FOG
DODGE CENTER   MOCLDY    64  63  94 CALM      29.93F FOG
PRESTON          N/A     68  67  94 N3        29.93F FOG
OWATONNA       FAIR      66  64  94 CALM      29.93S FOG
FARIBAULT      FAIR      70  68  94 N3        29.93S
$$

...ELSEWHERE IN MINNESOTA...


CITY           SKY/WX    TMP DP  RH WIND       PRES   REMARKS
MINNEAPOLIS    MOCLDY    72  64  76 NE6       29.93R
INTNL FALLS    FAIR      53  52  96 CALM      30.00S
DULUTH         FAIR      61  57  87 N3        29.96R
RED WING       FAIR      72  66  83 NW5       29.89S
REDWOOD FALLS  CLOUDY    69  64  84 N5        29.96R
MANKATO        FAIR      70  68  93 N8        29.93S
WORTHINGTON    MOCLDY    66  64  93 N7        29.98S
FAIRMONT       PTCLDY    68  67  96 N5        29.93F
$$

...SOUTHWEST WISCONSIN...


CITY           SKY/WX    TMP DP  RH WIND       PRES   REMARKS
LA CROSSE      FAIR      73  69  87 CALM      29.90S
PRAIRIE DU CHI FAIR      70  68  92 CALM      29.90F
BOSCOBEL       FAIR      69  67  93 CALM      29.91F FOG
LONE ROCK      FAIR      68  68 100 CALM      29.92S FOG
PLATTEVILLE    FAIR      70  69  98 SE5       29.94S
FORT MC COY    FAIR      59  59  98 CALM      29.93S
CAMP DOUGLAS   FAIR      62  62 100 CALM      29.92F
MAUSTON-NEW LI FAIR      64  63  98 CALM      29.92F FOG
VIROQUA        FAIR      67  67 100 E3        29.94S
WIS DELLS      FAIR      68  64  88 CALM      29.93F
$$

...ELSEWHERE IN WISCONSIN...


CITY           SKY/WX    TMP DP  RH WIND       PRES   REMARKS
MILWAUKEE      FAIR      74  68  81 CALM      29.93S
MADISON        FAIR      67  66  97 CALM      29.92F
GREEN BAY      FAIR      69  65  86 CALM      29.93R
EAU CLAIRE     FAIR      67  64  90 N6        29.90S
BLACK RVR FLS  FAIR      63  63 100 CALM      29.91F FOG
MEDFORD        FAIR      61  60  97 CALM      29.94F
WAUSAU         FAIR      67  64  90 CALM      29.92F
WIS RAPIDS     FAIR      66  64  93 CALM      29.94F
MARSHFIELD     FAIR      66  64  93 CALM      29.93S
RICE LAKE      FAIR      67  66  96 N3        29.95S
$$

...NORTHEAST IOWA...


CITY           SKY/WX    TMP DP  RH WIND       PRES   REMARKS
WATERLOO       FAIR      70  70 100 CALM      29.90S FOG
DUBUQUE        FAIR      70  66  87 SE5       29.93F
DECORAH        FAIR      70  70 100 CALM      29.91F
MASON CITY     PTCLDY    72  72 100 S5        29.94S FOG
CHARLES CITY   CLOUDY    72  70  94 S5        29.93S
OELWEIN        CLOUDY    70  70 100 SE5       29.93S
$$

...ELSEWHERE IN IOWA...


CITY           SKY/WX    TMP DP  RH WIND       PRES   REMARKS
DES MOINES     MOCLDY    70  69  97 E3        29.88S
IOWA CITY      MOCLDY    74  70  87 SE5       29.91F
FORT DODGE     LGT RAIN  70  66  87 SW3       29.94S
MARSHALLTOWN   CLOUDY    70  70 100 N5        29.90S FOG
CEDAR RAPIDS   FAIR      71  70  96 SE3       29.89F
$$

...NORTHERN ILLINOIS...


CITY           SKY/WX    TMP DP  RH WIND       PRES   REMARKS
CHICAGO-OHARE  CLOUDY    76  63  64 CALM      29.93F
CHICAGO-MIDWAY CLOUDY    77  65  66 S5        29.93F
MOLINE         CLOUDY    73  69  87 S5        29.90F
ROCKFORD       CLOUDY    70  65  84 CALM      29.94F
PEORIA         FAIR      74  71  91 S8        29.93F
$$

NOTE: "FAIR" INDICATES FEW OR NO CLOUDS BELOW 12,000 FEET WITH NO
SIGNIFICANT WEATHER AND/OR OBSTRUCTIONS TO VISIBILITY. WIND
SPEEDS ARE IN MILES-PER-HOUR.




USA.gov is the U.S. government's official web portal to all federal, state and local government web resources and services.